Location: Gleizolles
(44.4833°N, 6.7667°E)
Time: 17:08:53
(UTC+00:00)

Transit 2A - Pass Details

Date: 03 July 2024
Orbit: 591 x 960 km, 66.7° (Epoch: 16 July)

Event Time Altitude Azimuth Distance (km) Brightness Sun altitude
Rises 20:59:35 0° 325° (NW) 3,575 11.5 -13.6°
Reaches altitude 10° 21:02:06 10° 323° (NW) 2,659 10.3 -13.9°
Maximum altitude 21:08:18 65° 243° (WSW) 1,048 6.7 -14.5°
Enters shadow 21:12:52 19° 166° (SSE) 2,080 7.7 -15.0°
